Printer-friendly version

IAU Minor Planet Center

Minor Planet Center

MPEC 2008-U33 : 2008 UU

The following Minor Planet Electronic Circular may be linked-to from your own Web pages, but must not otherwise be redistributed electronically.


Read MPEC 2008-U32 Read MPEC 2008-U34


M.P.E.C. 2008-U33                                Issued 2008 Oct. 22, 01:33 UT

     The Minor Planet Electronic Circulars contain information on unusual
         minor planets and routine data on comets.  They are published
   on behalf of Commission 20 of the International Astronomical Union by the
          Minor Planet Center, Smithsonian Astrophysical Observatory,
                          Cambridge, MA 02138, U.S.A.

             Prepared using the Tamkin Foundation Computer Network

                              MPC@CFA.HARVARD.EDU
          URL http://www.cfa.harvard.edu/iau/mpc.html  ISSN 1523-6714

                                    2008 UU

Observations:
     K08U00U* C2008 10 21.35306 01 46 57.03 +03 44 33.5          21.2 V EU033G96
     K08U00U  C2008 10 21.35826 01 46 57.32 +03 45 10.9          20.3 V EU033G96
     K08U00U  C2008 10 21.36348 01 46 57.54 +03 45 49.9          21.4 V EU033G96
     K08U00U  C2008 10 21.36868 01 46 57.79 +03 46 27.1          20.2 V EU033G96
     K08U00U  C2008 10 21.40208 01 46 59.49 +03 50 31.8          21.1 V EU033G96
     K08U00U  C2008 10 21.40250 01 46 59.52 +03 50 35.0          20.8 V EU033G96
     K08U00U  C2008 10 21.40293 01 46 59.51 +03 50 38.0          20.6 V EU033G96
     K08U00U  C2008 10 21.40337 01 46 59.55 +03 50 40.8          20.8 V EU033G96
     K08U00U  C2008 10 21.42691 01 47 00.81 +03 53 34.2          21.6 V EU033G96
     K08U00U  C2008 10 21.42744 01 47 00.87 +03 53 37.9          21.6 V EU033G96
     K08U00U  C2008 10 21.99610 01 47 45.18 +05 04 12.4          21.1 R EU033J95
     K08U00U  C2008 10 22.01511 01 47 46.22 +05 06 37.3          21.1 R EU033J95
     K08U00U  C2008 10 22.02442 01 47 46.80 +05 07 47.9          20.2 R EU033J95

Observer details:
G96 Mt. Lemmon Survey.  Observer A. R. Gibbs.  Measurers E. C. Beshore,
    A. Boattini, G. J. Garradd, A. R. Gibbs, A. D. Grauer, R. E. Hill,
    R. A. Kowalski, S. M. Larson, R. H. McNaught.  1.5-m reflector + CCD.
J95 Great Shefford.  Observer P. Birtwhistle.  0.40-m f/6.0 Schmidt-Cassegrain
    + CCD.

Orbital elements:
2008 UU                                                  Earth MOID = 0.1035 AU
Epoch 2008 Nov. 30.0 TT = JDT 2454800.5                 MPC
M   3.24842              (2000.0)            P               Q
n   0.22236527     Peri.   23.62286     +0.57777083     -0.80822216
a   2.6983073      Node    31.43617     +0.70974708     +0.42863705
e   0.6011253      Incl.   12.60676     +0.40303840     +0.40379106
P   4.43           H   24.7           G   0.15           U   8
Residuals in seconds of arc
081021 G96  0.0   0.2+    081021 G96  0.1+  0.1+    081021 J95  0.0   0.1-
081021 G96  0.5+  0.4-    081021 G96  0.4-  0.1-    081022 J95  0.4-  0.2+
081021 G96  0.0   0.5+    081021 G96  0.2-  0.5-    081022 J95  0.4+  0.1-
081021 G96  0.1-  0.4-    081021 G96  0.2-  0.4+
081021 G96  0.0   0.1-    081021 G96  0.3+  0.2+

Ephemeris:
2008 UU                  a,e,i = 2.70, 0.60, 13                  q = 1.0763
Date    TT    R. A. (2000) Decl.     Delta      r     Elong.  Phase     V
2008 10 21    01 46.55   +03 02.4    0.130    1.124   172.3     6.8    21.0
2008 10 22    01 47.76   +05 05.4    0.126    1.121   174.0     5.3    20.9
2008 10 23    01 49.04   +07 16.0    0.122    1.117   175.8     3.7    20.7
2008 10 24    01 50.40   +09 34.0    0.119    1.114   177.6     2.2    20.6
2008 10 25    01 51.86   +11 59.6    0.116    1.111   178.3     1.5    20.5
2008 10 26    01 53.42   +14 32.3    0.114    1.107   177.0     2.7    20.5
2008 10 27    01 55.10   +17 12.0    0.111    1.105   174.8     4.7    20.5
2008 10 28    01 56.90   +19 57.9    0.109    1.102   172.5     6.8    20.6
2008 10 29    01 58.85   +22 49.3    0.107    1.099   170.0     9.1    20.7
2008 10 30    02 00.96   +25 45.4    0.106    1.097   167.4    11.4    20.7
2008 10 31    02 03.24   +28 45.1    0.105    1.094   164.7    13.8    20.8
2008 11 01    02 05.71   +31 47.0    0.104    1.092   162.1    16.3    20.9
2008 11 02    02 08.40   +34 50.0    0.104    1.090   159.4    18.7    20.9
2008 11 03    02 11.34   +37 52.6    0.104    1.088   156.7    21.2    21.0
2008 11 04    02 14.53   +40 53.4    0.104    1.086   154.0    23.6    21.1
2008 11 05    02 18.02   +43 51.2    0.105    1.085   151.4    26.0    21.2
2008 11 06    02 21.84   +46 44.7    0.106    1.083   148.9    28.3    21.2
2008 11 07    02 26.02   +49 32.8    0.107    1.082   146.4    30.5    21.3
2008 11 08    02 30.60   +52 14.7    0.109    1.080   144.0    32.6    21.4
2008 11 09    02 35.63   +54 49.5    0.110    1.079   141.8    34.6    21.5
2008 11 10    02 41.15   +57 16.7    0.113    1.079   139.7    36.4    21.6

Timothy B. Spahr             (C) Copyright 2008 MPC           M.P.E.C. 2008-U33

Read MPEC 2008-U32 Read MPEC 2008-U34


Our Web policy. Index to the CBAT/MPC/ICQ pages.


Valid HTML 4.01!